Location: Chateh
(58.6667°N, 118.6000°W)
Time: 17:52:49
(UTC+00:00)

Gurwin Techsat 1B - Pass Details

Date: 03 December 2023
Orbit: 810 x 813 km, 98.9° (Epoch: 21 February)

Event Time Altitude Azimuth Distance (km) Brightness Sun altitude
Rises 12:22:15 0° 17° (NNE) 3,352 12.1 -29.3°
Reaches altitude 10° 12:24:38 10° 13° (NNE) 2,417 11.2 -29.0°
Enters shadow 12:27:17 29° 0° (N) 1,467 9.9 -28.7°
